This is the latest recevied weather packets stored in our database for station/object DL2DHM-13. If no packets are shown the sender has not sent any weather packets the latest 10 day(s).
| Time | Temp. | Humidity | Pressure | Rain* | Wind** | Luminosity | Snow |
|---|---|---|---|---|---|---|---|
| 1777776048 | 10° C | 91% | 1011 hPa | 0 mm | - | 0 W/m² | - |
| 1777775145 | 10.56° C | 91% | 1011.2 hPa | 0 mm | - | 0 W/m² | - |
| 1777773942 | 10.56° C | 90% | 1011.4 hPa | 0 mm | - | 0 W/m² | - |
| 1777773641 | 11.11° C | 89% | 1011.4 hPa | 0 mm | - | 0 W/m² | - |
| 1777773037 | 11.67° C | 90% | 1011.5 hPa | 0 mm | - | 0 W/m² | - |
| 1777772744 | 12.22° C | 90% | 1011.5 hPa | 0 mm | - | 0 W/m² | - |
| 1777771234 | 12.22° C | 90% | 1011.9 hPa | 0 mm | - | 0 W/m² | - |
| 1777770934 | 12.22° C | 90% | 1011.8 hPa | 0 mm | - | 0 W/m² | - |
| 1777770333 | 12.22° C | 90% | 1011.8 hPa | 0 mm | - | 0 W/m² | - |
| 1777770033 | 12.22° C | 89% | 1011.9 hPa | 0 mm | - | 0 W/m² | - |
| 1777769128 | 12.78° C | 89% | 1012.1 hPa | 0 mm | - | 0 W/m² | - |
| 1777767623 | 13.33° C | 86% | 1012.3 hPa | 0 mm | - | 0 W/m² | - |
| 1777766719 | 14.44° C | 85% | 1012.4 hPa | 0 mm | - | 0 W/m² | - |
| 1777764914 | 15.56° C | 82% | 1012.4 hPa | 0 mm | - | 0 W/m² | - |
| 1777764011 | 16.11° C | 82% | 1012.5 hPa | 0 mm | - | 0 W/m² | - |
| 1777757760 | 15° C | 81% | 1013.3 hPa | 0 mm | - | 0 W/m² | - |
| 1777755655 | 14.44° C | 81% | 1013.3 hPa | 0 mm | - | 0 W/m² | - |
| 1777755357 | 15° C | 81% | 1013.4 hPa | 0 mm | - | 0 W/m² | - |
| 1777754151 | 15.56° C | 78% | 1013.2 hPa | 0 mm | - | 0 W/m² | - |
| 1777752947 | 16.11° C | 75% | 1013.2 hPa | 0 mm | - | 0 W/m² | - |
| 1777752349 | 16.11° C | 75% | 1013.2 hPa | 0 mm | - | 0 W/m² | - |
| 1777751146 | 16.11° C | 75% | 1013.3 hPa | 0 mm | - | 0 W/m² | - |
| 1777750845 | 16.11° C | 75% | 1013.3 hPa | 0 mm | - | 0 W/m² | - |
| 1777750244 | 16.67° C | 73% | 1013.2 hPa | 0 mm | - | 0 W/m² | - |
| 1777749942 | 16.67° C | 73% | 1013.2 hPa | 0 mm | - | 0 W/m² | - |
* Rain latest hour (hover to see other rain measurements)
** Current wind speed in m/s (hover to see current wind gust speed)